PEGASUS DEB

Satellite information

Favourite Embed

Satellite Type and Status

DEBRISIN ORBIT

Key statistics

Satellite PEGASUS DEB at a glance.

Uptime

11532

Days in orbit

Revolutions

≈ 14.3

Per day

Orbit

LEO

Low Earth Orbit

Inclination

81.3

Latest

Satellite identification and parameters

Extended collection of information and parameters for PEGASUS DEB.

Object identification

Identified? True

Debris? True

Object name: PEGASUS DEB

International designator: 1994-029CY

Object number (NORAD): 24051

Object ID (CCSDS): 24051

Country: UNITED STATES OF AMERICA (US)

Current information (Y/N): Y

RCS size: SMALL

Orbital parameters

Period: 100.729 minutes

Inclination: 81.2894 deg

SMA: 7171.278 km

Apoapsis: 1043.067 km

Periapsis: 543.219 km

RAAN: 225.3618 deg

Eccentricy: 0.03485068

Argument of periapsis: 340.2947 deg

Mean anomaly: 180.0449 deg

Mean motion: 14.29578101 rev/day

Mean motion (dot): 0.00014121 rev/day2

B* drag term: 0.002837503 1/REarth

Two-line elements (TLE)

Creation date: Dec. 12, 2025, 10:14 a.m.

Reference frame: TEME

Reference center: EARTH

Epoch: Dec. 12, 2025, 3:59 a.m. UTC

TLE line 0: 0 PEGASUS DEB

TLE line 1: 1 24051U 94029CY 25346.16604390 .00014121 00000-0 28375-2 0 9991

TLE line 2: 2 24051 81.2894 225.3618 0348507 340.2947 180.0449 14.29578101489936

Live tracking on map

Real-time ground track for satellite PEGASUS DEB.

In-orbit conjunctions

A list of the most updated potential collisions computed for object PEGASUS DEB.

Target Orbit TCA Probability of collision Miss distance Type
SL-3 R/B LEO 2025-08-07 05:14:01 0.0002041811 227.0 (m) ROCKET BODY
CZ-6A DEB LEO 2025-02-16 19:12:21 0.0005152384 219.0 (m) DEBRIS
THOR ABLESTAR DEB LEO 2024-11-10 03:37:03 0.0002507402 178.0 (m) DEBRIS

Associated space launch

PEGASUS DEB was lifted into orbit during the mission ‘Pegasus HAPS | Space Test Experiments Platform 2 (STEP-2)’, on board a Pegasus HAPS space rocket.

The launch took place on May 19, 1994, 5:03 p.m. from Edwards Air Force Base.

For more information about the launch, click the button.

Launch to space Pegasus HAPS | Space Test Experiments Platform 2 (STEP-2)
Pegasus HAPS | Space Test Experiments Platform 2 (STEP-2)

Agency: N/A

Status: Launch Successful

Launch date: May 19, 1994, 5:03 p.m. UTC

Rocket: Pegasus HAPS

Launch pad: Edwards Air Force Base

Location: Air launch to orbit

...

Latest news about this satellite

There are no fresh news available about this satellite. Check back as we update our databases every day.


Newsletter sign-up

Weekly statistics, charts and insights to help you stay on top of the space industry.